Hourly Weather Bolshoy Bokov

Today, 30 July, Friday

Time Temperature Precipitation Wind Pressure Humidity
00:00 +19°C° 0 mm 3 mps 742 mmHg 95%
01:00 +19°C° 0 mm 3 mps 742 mmHg 95%
02:00 +18°C° 0 mm 3 mps 742 mmHg 95%
03:00 +18°C° 0 mm 3 mps 742 mmHg 95%
04:00 +18°C° 0 mm 2 mps 742 mmHg 95%
05:00 +18°C° 0 mm 2 mps 742 mmHg 95%
06:00 +19°C° 0 mm 3 mps 742 mmHg 86%
07:00 +21°C° 0 mm 3 mps 743 mmHg 78%
08:00 +23°C° 0 mm 4 mps 743 mmHg 69%
09:00 +25°C° 0 mm 4 mps 743 mmHg 60%
10:00 +27°C° 0 mm 4 mps 743 mmHg 51%
11:00 +29°C° 0 mm 5 mps 743 mmHg 41%
12:00 +29°C° 0 mm 5 mps 743 mmHg 39%
13:00 +30°C° 0 mm 4 mps 742 mmHg 37%
14:00 +28°C° 0 mm 3 mps 742 mmHg 43%
15:00 +28°C° 0 mm 3 mps 742 mmHg 43%
16:00 +28°C° 0 mm 3 mps 742 mmHg 43%
17:00 +28°C° 0 mm 2 mps 742 mmHg 43%
18:00 +27°C° 0 mm 2 mps 742 mmHg 48%
19:00 +25°C° 0 mm 2 mps 742 mmHg 52%
20:00 +24°C° 0 mm 2 mps 742 mmHg 57%
21:00 +24°C° 0 mm 2 mps 742 mmHg 58%
22:00 +23°C° 0 mm 2 mps 742 mmHg 60%
23:00 +23°C° 0 mm 2 mps 742 mmHg 62%

Tomorrow, 31 July, Saturday

Time Temperature Precipitation Wind Pressure Humidity
00:00 +21°C° 0 mm 2 mps 742 mmHg 64%
01:00 +21°C° 0 mm 2 mps 742 mmHg 66%
02:00 +20°C° 0 mm 2 mps 742 mmHg 68%
03:00 +19°C° 0 mm 2 mps 742 mmHg 72%
04:00 +18°C° 0 mm 2 mps 742 mmHg 75%
05:00 +18°C° 0 mm 2 mps 742 mmHg 79%
06:00 +20°C° 0 mm 2 mps 743 mmHg 71%
07:00 +23°C° 0 mm 2 mps 743 mmHg 63%
08:00 +25°C° 0 mm 2 mps 743 mmHg 55%
09:00 +26°C° 0 mm 2 mps 743 mmHg 51%
10:00 +28°C° 0 mm 3 mps 743 mmHg 46%
11:00 +29°C° 0 mm 3 mps 743 mmHg 41%
12:00 +30°C° 0 mm 3 mps 743 mmHg 39%
13:00 +31°C° 0 mm 3 mps 742 mmHg 37%
14:00 +33°C° 0 mm 3 mps 742 mmHg 34%
15:00 +33°C° 0 mm 3 mps 742 mmHg 37%
16:00 +31°C° 0 mm 3 mps 742 mmHg 40%
17:00 +31°C° 0 mm 2 mps 742 mmHg 42%
18:00 +29°C° 0 mm 2 mps 742 mmHg 47%
19:00 +28°C° 0 mm 2 mps 742 mmHg 52%
20:00 +26°C° 0 mm 2 mps 742 mmHg 58%
21:00 +26°C° 0 mm 2 mps 742 mmHg 60%
22:00 +25°C° 0 mm 3 mps 742 mmHg 62%
23:00 +25°C° 0 mm 4 mps 742 mmHg 64%

Day after tomorrow, 1 August, Sunday

Time Temperature Precipitation Wind Pressure Humidity
00:00 +22°C° 0.2 mm 3 mps 742 mmHg 74%
01:00 +20°C° 0.2 mm 2 mps 742 mmHg 83%
02:00 +18°C° 0.2 mm 2 mps 742 mmHg 92%
03:00 +19°C° 0.5 mm 1 mps 743 mmHg 94%
04:00 +19°C° 0.5 mm 1 mps 743 mmHg 95%
05:00 +19°C° 0.5 mm 1 mps 743 mmHg 96%
06:00 +20°C° 0.2 mm 1 mps 743 mmHg 90%
07:00 +22°C° 0.2 mm 1 mps 743 mmHg 85%
08:00 +23°C° 0.2 mm 1 mps 743 mmHg 79%
09:00 +24°C° 0 mm 1 mps 743 mmHg 73%
10:00 +26°C° 0 mm 1 mps 743 mmHg 66%
11:00 +27°C° 0 mm 2 mps 743 mmHg 60%
12:00 +28°C° 0 mm 2 mps 743 mmHg 58%
13:00 +28°C° 0 mm 2 mps 743 mmHg 56%
14:00 +29°C° 0 mm 2 mps 743 mmHg 54%
15:00 +29°C° 0 mm 2 mps 743 mmHg 52%
16:00 +29°C° 0 mm 1 mps 742 mmHg 51%
17:00 +30°C° 0 mm 1 mps 742 mmHg 49%
18:00 +28°C° 0 mm 1 mps 742 mmHg 55%
19:00 +26°C° 0 mm 1 mps 742 mmHg 61%
20:00 +22°C° 0 mm 0 mps 742 mmHg 67%
21:00 +23°C° 0 mm 1 mps 742 mmHg 71%
22:00 +23°C° 0 mm 2 mps 742 mmHg 75%
23:00 +21°C° 0 mm 2 mps 742 mmHg 80%

2 August, Monday

Time Temperature Precipitation Wind Pressure Humidity
00:00 +21°C° 0 mm 2 mps 741 mmHg 81%
01:00 +21°C° 0 mm 2 mps 741 mmHg 82%
02:00 +21°C° 0 mm 2 mps 741 mmHg 83%
03:00 +21°C° 0.1 mm 2 mps 740 mmHg 84%
04:00 +21°C° 0.1 mm 2 mps 740 mmHg 86%
05:00 +20°C° 0.1 mm 2 mps 740 mmHg 88%
06:00 +22°C° 0.1 mm 3 mps 739 mmHg 82%
07:00 +24°C° 0.1 mm 3 mps 739 mmHg 76%
08:00 +25°C° 0.1 mm 4 mps 739 mmHg 70%
09:00 +27°C° 0.1 mm 4 mps 739 mmHg 64%
10:00 +28°C° 0.1 mm 4 mps 739 mmHg 57%
11:00 +30°C° 0.1 mm 4 mps 739 mmHg 51%
12:00 +30°C° 0 mm 5 mps 739 mmHg 48%
13:00 +32°C° 0 mm 5 mps 739 mmHg 46%
14:00 +32°C° 0 mm 6 mps 739 mmHg 43%
15:00 +30°C° 0 mm 6 mps 739 mmHg 49%
16:00 +28°C° 0 mm 6 mps 739 mmHg 54%
17:00 +27°C° 0 mm 7 mps 739 mmHg 60%
18:00 +24°C° 0.1 mm 6 mps 739 mmHg 65%
19:00 +22°C° 0.1 mm 6 mps 740 mmHg 71%
20:00 +20°C° 0.1 mm 5 mps 741 mmHg 76%
21:00 +19°C° 0 mm 5 mps 741 mmHg 77%
22:00 +18°C° 0 mm 4 mps 741 mmHg 78%
23:00 +18°C° 0 mm 4 mps 742 mmHg 80%

3 August, Tuesday

Time Temperature Precipitation Wind Pressure Humidity
00:00 +18°C° 0 mm 4 mps 742 mmHg 79%
01:00 +18°C° 0 mm 4 mps 742 mmHg 78%
02:00 +18°C° 0 mm 3 mps 742 mmHg 78%
03:00 +17°C° 0 mm 3 mps 743 mmHg 79%
04:00 +17°C° 0 mm 3 mps 743 mmHg 81%
05:00 +17°C° 0 mm 3 mps 743 mmHg 82%
06:00 +18°C° 0 mm 3 mps 744 mmHg 78%
07:00 +19°C° 0 mm 3 mps 744 mmHg 74%
08:00 +20°C° 0 mm 3 mps 744 mmHg 69%
09:00 +21°C° 0.3 mm 4 mps 744 mmHg 66%
10:00 +22°C° 0.3 mm 4 mps 745 mmHg 62%
11:00 +23°C° 0.3 mm 4 mps 745 mmHg 58%
12:00 +23°C° 0.3 mm 4 mps 745 mmHg 58%
13:00 +23°C° 0.3 mm 4 mps 745 mmHg 57%
14:00 +24°C° 0.3 mm 3 mps 745 mmHg 57%
15:00 +22°C° 0 mm 3 mps 745 mmHg 55%
16:00 +22°C° 0 mm 3 mps 746 mmHg 53%
17:00 +22°C° 0 mm 3 mps 746 mmHg 51%
18:00 +20°C° 0 mm 3 mps 746 mmHg 56%
19:00 +19°C° 0 mm 3 mps 746 mmHg 60%
20:00 +18°C° 0 mm 2 mps 746 mmHg 65%
21:00 +17°C° 0 mm 2 mps 747 mmHg 68%
22:00 +16°C° 0 mm 2 mps 747 mmHg 72%
23:00 +15°C° 0 mm 2 mps 747 mmHg 76%

4 August, Wednesday

Time Temperature Precipitation Wind Pressure Humidity
00:00 +14°C° 0 mm 2 mps 747 mmHg 77%
01:00 +14°C° 0 mm 2 mps 747 mmHg 79%
02:00 +14°C° 0 mm 2 mps 747 mmHg 80%
03:00 +13°C° 0 mm 1 mps 747 mmHg 80%
04:00 +13°C° 0 mm 1 mps 748 mmHg 80%
05:00 +13°C° 0 mm 1 mps 748 mmHg 81%
06:00 +15°C° 0 mm 1 mps 748 mmHg 73%
07:00 +18°C° 0 mm 1 mps 748 mmHg 65%
08:00 +20°C° 0 mm 1 mps 748 mmHg 58%
09:00 +22°C° 0 mm 1 mps 748 mmHg 51%
10:00 +24°C° 0 mm 1 mps 748 mmHg 45%
11:00 +25°C° 0 mm 1 mps 748 mmHg 38%
12:00 +26°C° 0 mm 2 mps 748 mmHg 37%
13:00 +27°C° 0 mm 2 mps 747 mmHg 35%
14:00 +27°C° 0 mm 2 mps 747 mmHg 34%
15:00 +27°C° 0 mm 2 mps 747 mmHg 37%
16:00 +27°C° 0 mm 2 mps 746 mmHg 40%
17:00 +27°C° 0 mm 2 mps 746 mmHg 43%
18:00 +25°C° 0 mm 3 mps 746 mmHg 47%
19:00 +24°C° 0 mm 3 mps 746 mmHg 52%
20:00 +21°C° 0 mm 3 mps 746 mmHg 56%
21:00 +20°C° 0.5 mm 3 mps 746 mmHg 65%
22:00 +18°C° 0.5 mm 2 mps 746 mmHg 75%
23:00 +17°C° 0.5 mm 2 mps 745 mmHg 84%
Show more

We Need Your Consent

Meteoprog and our Service Providers may store and access personal data such as cookies, device identifiers or other similar technologies on your device and process such data to personalise content and ads, as well as provide social media features and to analyse the traffic.

  • Store and/or access information on your device

    Cookies, device identifiers or other information can be stored or accessed on your device for the purposes indicated above.

  • Personalised ads and content, ad and content measurement, audience insights, and products development

    Ads and content can be personalised based on a profile. More data can be added to better personalise ads and content. Ad and content performance can be measured. Insights about the audience who saw the ads and content can be derived. Such data can be used to develop or improve user’s experience, systems and software.

By clicking ‘I Agree’ you will allow the use of indicated cookies, device identifiers, web beacons or other similar technologies. Your settings can be changed in the browser on your device.

For certain purposes, legitimate interests may be relied on, rather than consent. You can read more about this in our Privacy and Cookie Policy.